Weather in Kaluga

Ukraine / Mykolaiv District     47°21′44″N   32°56′49″E
temp.,
°C
wind,
m/s
gust,
m/s
humid.,
%
clouds,
%
prec.,
mm/h
press.,
hPa
HPBL,
m
19 april, mon
mon1900:00+10ese1259100 0.0 101716
03:00+10wsw2367100 0.0 101662
06:00+9n1172100 0.0 101525
09:00+12nne226399 0.0 1015418
12:00+12ne2261100 0.1 10151164
15:00+14se015669 0.3 10141215
18:00+14ne2254100 0.3 10131171
21:00+12ne3364100 0.4 101364
20 april, tue
tue2000:00+11ene3471100 0.0 101196
03:00+10ne3572100 0.1 1009164
06:00+9nne3681100 0.0 1007177
09:00+10ne4679100 0.5 1008441
12:00+11nne5774100 0.8 1007773
15:00+15nnw5652100 0.9 10061872
18:00+12wnw3562100 0.2 1007153
21:00+11wnw366396 0.2 1009129
21 april, wed
wed2100:00+8w487647 0.0 1010144
03:00+7wsw36795 0.0 101298
06:00+6w34808 0.0 101360
09:00+12wsw346210 0.0 1014444
12:00+15wsw5750100 0.7 10142136
15:00+15wsw785496 2.3 10141507
18:00+14wsw56605 1.1 10151144
21:00+9sw47855 1.3 1017120
22 april, thu
thu2200:00+8sw369079 0.0 1018110
03:00+7ssw35915 0.0 101881
06:00+7ssw33905 0.0 101941
09:00+13ssw45675 0.0 1020404
12:00+17ssw554333 0.0 10202229
15:00+17sw454483 0.0 10201717
18:00+15ssw475563 0.0 1020198
21:00+11ssw47731 0.0 1021130
23 april, fri
fri2300:00+8s48895 0.0 1021164
03:00+8s49935 0.0 1021175
06:00+7s49924 0.0 1021168
09:00+13s69631 0.0 1021577
12:00+17ssw77465 0.0 10201606
15:00+18ssw774395 0.0 10192220
18:00+16ssw67491 0.0 10191426
21:00+10s487292 0.0 1019157